User: anonymous   Login
Location: Unspecified
(0.0000°N, 0.0000°E)
Time: 11:56:35
(UTC+00:00)
Language:

PHOENIX - Orbit

View from above orbital plane
View from above orbital plane
View from above satellite
View from above satellite

Ground track
Ground track

The orbit data is extracted from the following two-line orbital elements,

1 42706U 98067LP  18347.73203956  .00032685  00000-0  18399-3 0  9994
2 42706  51.6277 155.3892 0002027 171.9651 188.1383 15.78894843 90179
Epoch (UTC): 13 December 2018 17:34:08
Eccentricity: 0.0002027
inclination: 51.6277°
perigee height: 332 km
apogee height: 335 km
right ascension of ascending node: 155.3892°
argument of perigee: 171.9651°
revolutions per day: 15.78894843
mean anomaly at epoch: 188.1383°
orbit number at epoch: 9017

The dashed part of the orbit path shows where the satellite is in the earth's shadow,  

DLR